| time (UTC) | temp C | wind direction | speed KPH | gust KPH | rain 1hr cm | rain 24hr cm | rain mn cm | humidity % | barometer mb |
| 20260831165225 | 27 | 227 | 4.8 | 6.4 | 0.00 | 0.03 | 0.03 | 73 | 994.5 |
| 20260831163723 | 26 | 210 | 6.4 | 11.3 | 0.00 | 0.03 | 0.03 | 76 | 994.9 |
| 20260831162223 | 26 | 257 | 4.8 | 11.3 | 0.00 | 0.03 | 0.03 | 80 | 995.0 |
| 20260831160720 | 25 | 174 | 3.2 | 6.4 | 0.00 | 0.03 | 0.03 | 82 | 995.1 |
| 20260831155216 | 24 | 289 | 4.8 | 14.5 | 0.00 | 0.03 | 0.03 | 86 | 995.1 |
| 20260831153712 | 23 | 208 | 6.4 | 11.3 | 0.00 | 0.03 | 0.03 | 90 | 995.4 |
| 20260831152212 | 22 | 202 | 3.2 | 6.4 | 0.00 | 0.03 | 0.03 | 91 | 995.5 |
| 20260831150707 | 22 | 180 | 1.6 | 3.2 | 0.00 | 0.03 | 0.03 | 93 | 995.3 |
| 20260831145203 | 22 | 157 | 6.4 | 9.7 | 0.13 | 0.03 | 0.03 | 91 | 995.5 |
| 20260831143659 | 22 | 151 | 3.2 | 4.8 | 0.00 | 0.00 | 0.00 | 89 | 996.1 |
| 20260831142158 | 23 | 129 | 3.2 | 4.8 | 0.00 | 0.00 | 0.00 | 85 | 995.7 |
| 20260831140658 | 23 | 176 | 3.2 | 6.4 | 0.00 | 0.00 | 0.00 | 84 | 995.0 |
| 20260831135158 | 23 | 155 | 6.4 | 14.5 | 0.00 | 0.00 | 0.00 | 84 | 995.2 |
| 20260831133654 | 22 | 164 | 1.6 | 6.4 | 0.00 | 0.00 | 0.00 | 87 | 995.4 |
| 20260831132150 | 23 | 214 | 8.0 | 12.9 | 0.00 | 0.00 | 0.00 | 87 | 995.2 |
| 20260831130648 | 22 | 180 | 1.6 | 4.8 | 0.00 | 0.00 | 0.00 | 90 | 995.4 |
| 20260831125143 | 22 | 221 | 3.2 | 3.2 | 0.00 | 0.00 | 0.00 | 89 | 995.4 |
| 20260831123641 | 22 | 165 | 3.2 | 6.4 | 0.00 | 0.00 | 0.00 | 86 | 995.7 |
| 20260831122136 | 22 | 180 | 3.2 | 11.3 | 0.00 | 0.00 | 0.00 | 87 | 995.4 |
| 20260831120632 | 22 | 171 | 3.2 | 6.4 | 0.00 | 0.00 | 0.00 | 87 | 995.5 |
| 20260831115130 | 22 | 200 | 0.0 | 3.2 | 0.00 | 0.00 | 0.00 | 89 | 995.3 |
| 20260831113630 | 21 | 145 | 3.2 | 6.4 | 0.00 | 0.00 | 0.00 | 91 | 994.9 |
| 20260831112125 | 21 | 130 | 9.7 | 12.9 | 0.00 | 0.00 | 0.00 | 92 | 994.7 |
| 20260831110624 | 20 | 138 | 0.0 | 0.0 | 0.00 | 0.00 | 0.00 | 96 | 994.5 |
| 20260831105119 | 20 | 143 | 1.6 | 3.2 | 0.00 | 0.00 | 0.00 | 97 | 994.3 |
| 20260831103618 | 20 | 160 | 0.0 | 1.6 | 0.00 | 0.00 | 0.00 | 97 | 994.7 |
| 20260831102115 | 20 | 186 | 0.0 | 0.0 | 0.00 | 0.00 | 0.00 | 97 | 994.7 |
| 20260831100613 | 20 | 169 | 0.0 | 1.6 | 0.00 | 0.00 | 0.00 | 97 | 994.8 |
| 20260831095113 | 20 | 174 | 0.0 | 0.0 | 0.00 | 0.00 | 0.00 | 97 | 994.9 |
| 20260831093612 | 20 | 177 | 0.0 | 0.0 | 0.00 | 0.00 | 0.00 | 97 | 995.1 |
| 20260831092111 | 20 | 204 | 0.0 | 0.0 | 0.00 | 0.00 | 0.00 | 97 | 995.4 |
| 20260831090607 | 20 | 154 | 0.0 | 1.6 | 0.00 | 0.00 | 0.00 | 96 | 995.3 |
| 20260831085105 | 20 | 192 | 0.0 | 0.0 | 0.00 | 0.00 | 0.00 | 96 | 995.0 |
| 20260831083605 | 20 | 180 | 0.0 | 1.6 | 0.00 | 0.00 | 0.00 | 96 | 995.0 |
| 20260831082105 | 20 | 174 | 0.0 | 0.0 | 0.00 | 0.00 | 0.00 | 95 | 994.9 |
| 20260831080603 | 20 | 138 | 0.0 | 1.6 | 0.00 | 0.00 | 0.00 | 94 | 995.0 |
| 20260831075100 | 21 | 173 | 0.0 | 1.6 | 0.00 | 0.00 | 0.00 | 93 | 995.0 |
| 20260831073555 | 21 | 156 | 1.6 | 3.2 | 0.00 | 0.00 | 0.00 | 92 | 995.1 |
| 20260831072053 | 21 | 188 | 3.2 | 4.8 | 0.00 | 0.00 | 0.00 | 91 | 995.2 |
| 20260831070551 | 21 | 234 | 1.6 | 4.8 | 0.00 | 0.00 | 0.00 | 91 | 995.4 |
| 20260831065050 | 21 | 219 | 3.2 | 4.8 | 0.00 | 0.00 | 0.00 | 91 | 995.5 |
| 20260831063548 | 21 | 208 | 0.0 | 1.6 | 0.00 | 0.00 | 0.00 | 94 | 995.4 |
| 20260831062048 | 20 | 171 | 0.0 | 0.0 | 0.00 | 0.00 | 0.00 | 95 | 995.0 |
| 20260831060543 | 20 | 167 | 0.0 | 1.6 | 0.00 | 0.00 | 0.00 | 95 | 994.9 |
| 20260831055041 | 21 | 178 | 0.0 | 0.0 | 0.00 | 0.00 | 0.00 | 94 | 994.9 |
| 20260831053538 | 20 | 181 | 0.0 | 0.0 | 0.00 | 0.00 | 0.00 | 94 | 995.3 |
| 20260831052037 | 20 | 176 | 0.0 | 0.0 | 0.00 | 0.00 | 0.00 | 94 | 995.1 |
| 20260831050535 | 21 | 148 | 1.6 | 1.6 | 0.00 | 0.00 | 0.00 | 93 | 995.3 |
| 20260831045034 | 21 | 191 | 0.0 | 0.0 | 0.00 | 0.00 | 0.00 | 92 | 995.3 |
| 20260831043531 | 21 | 170 | 0.0 | 0.0 | 0.00 | 0.00 | 0.00 | 92 | 995.5 |
| 20260831042026 | 22 | 192 | 4.8 | 4.8 | 0.00 | 0.00 | 0.00 | 88 | 995.6 |
| 20260831040522 | 22 | 146 | 4.8 | 4.8 | 0.00 | 0.00 | 0.00 | 89 | 995.4 |
| 20260831035020 | 21 | 118 | 3.2 | 3.2 | 0.00 | 2.41 | 2.41 | 90 | 995.2 |
| 20260831033517 | 23 | 158 | 3.2 | 6.4 | 0.00 | 2.41 | 2.41 | 85 | 995.2 |
| 20260831032013 | 23 | 155 | 1.6 | 3.2 | 0.00 | 2.41 | 2.41 | 84 | 995.3 |
| 20260831030511 | 23 | 189 | 1.6 | 3.2 | 0.00 | 2.41 | 2.41 | 84 | 995.1 |
| 20260831025010 | 23 | 212 | 3.2 | 4.8 | 0.00 | 2.41 | 2.41 | 84 | 995.5 |
| 20260831023509 | 23 | 209 | 1.6 | 4.8 | 0.00 | 2.41 | 2.41 | 84 | 995.6 |
| 20260831022005 | 23 | 189 | 3.2 | 4.8 | 0.00 | 2.41 | 2.41 | 83 | 995.2 |
| 20260831020500 | 23 | 224 | 4.8 | 6.4 | 0.00 | 2.41 | 2.41 | 81 | 994.7 |
| 20260831014957 | 23 | 261 | 3.2 | 4.8 | 0.00 | 2.41 | 2.41 | 82 | 995.1 |
| 20260831013455 | 23 | 240 | 1.6 | 6.4 | 0.00 | 2.41 | 2.41 | 82 | 994.8 |
| 20260831011955 | 23 | 208 | 4.8 | 9.7 | 0.00 | 2.41 | 2.41 | 83 | 995.0 |
| 20260831010452 | 23 | 174 | 8.0 | 9.7 | 0.00 | 2.41 | 2.41 | 83 | 994.8 |
| 20260831004949 | 23 | 262 | 4.8 | 11.3 | 0.00 | 2.41 | 2.41 | 83 | 994.7 |
| 20260831003449 | 23 | 181 | 1.6 | 11.3 | 0.00 | 2.41 | 2.41 | 83 | 994.6 |
| 20260831001949 | 23 | 174 | 1.6 | 4.8 | 0.00 | 2.41 | 2.41 | 83 | 994.5 |
| 20260831000448 | 23 | 220 | 9.7 | 12.9 | 0.00 | 2.41 | 2.41 | 83 | 994.6 |
| 20260830234943 | 23 | 246 | 6.4 | 12.9 | 0.00 | 2.41 | 2.41 | 82 | 994.8 |
| 20260830233440 | 24 | 193 | 8.0 | 11.3 | 0.00 | 2.41 | 2.41 | 82 | 994.6 |
| 20260830231940 | 24 | 126 | 3.2 | 11.3 | 0.00 | 2.41 | 2.41 | 82 | 994.7 |
| 20260830230436 | 25 | 219 | 6.4 | 9.7 | 0.00 | 2.41 | 2.41 | 80 | 994.8 |
| 20260830224931 | 25 | 261 | 3.2 | 14.5 | 0.00 | 2.41 | 2.41 | 79 | 994.6 |
| 20260830223429 | 25 | 218 | 11.3 | 14.5 | 0.00 | 2.41 | 2.41 | 77 | 994.6 |
| 20260830221929 | 25 | 208 | 6.4 | 9.7 | 0.00 | 2.41 | 2.41 | 77 | 994.9 |
| 20260830220427 | 25 | 216 | 6.4 | 22.5 | 0.00 | 2.41 | 2.41 | 75 | 994.9 |
| 20260830214926 | 26 | 172 | 6.4 | 12.9 | 0.00 | 2.41 | 2.41 | 73 | 994.7 |
| 20260830213423 | 26 | 200 | 8.0 | 22.5 | 0.00 | 2.41 | 2.41 | 70 | 994.9 |
| 20260830211919 | 27 | 129 | 9.7 | 14.5 | 0.00 | 2.41 | 2.41 | 67 | 995.0 |
| 20260830210415 | 27 | 141 | 14.5 | 20.9 | 0.00 | 2.41 | 2.41 | 65 | 995.0 |
| 20260830204913 | 28 | 185 | 6.4 | 16.1 | 0.00 | 2.41 | 2.41 | 64 | 995.0 |
| 20260830203410 | 28 | 113 | 11.3 | 16.1 | 0.00 | 2.41 | 2.41 | 62 | 995.2 |
| 20260830201906 | 28 | 235 | 14.5 | 27.4 | 0.00 | 2.41 | 2.41 | 59 | 995.1 |
| 20260830200401 | 28 | 200 | 9.7 | 17.7 | 0.00 | 2.41 | 2.41 | 57 | 995.0 |
| 20260830194900 | 30 | 252 | 9.7 | 16.1 | 0.00 | 2.41 | 2.41 | 54 | 994.9 |
| 20260830193359 | 30 | 237 | 11.3 | 16.1 | 0.00 | 2.41 | 2.41 | 56 | 994.5 |
| 20260830191857 | 29 | 192 | 11.3 | 20.9 | 0.00 | 2.41 | 2.41 | 56 | 994.8 |
| 20260830190353 | 28 | 255 | 11.3 | 16.1 | 0.00 | 2.41 | 2.41 | 62 | 994.6 |
| 20260830184848 | 28 | 290 | 4.8 | 14.5 | 0.00 | 2.41 | 2.41 | 64 | 994.6 |
| 20260830183348 | 27 | 211 | 4.8 | 16.1 | 0.00 | 2.41 | 2.41 | 68 | 994.8 |
| 20260830181847 | 27 | 174 | 11.3 | 22.5 | 0.00 | 2.41 | 2.41 | 67 | 994.5 |
| 20260830180342 | 27 | 190 | 9.7 | 11.3 | 0.00 | 2.41 | 2.41 | 68 | 994.3 |
| 20260830174842 | 27 | 181 | 3.2 | 9.7 | 0.00 | 2.41 | 2.41 | 70 | 994.6 |
| 20260830173340 | 27 | 249 | 8.0 | 16.1 | 0.00 | 2.41 | 2.41 | 70 | 994.6 |
| 20260830171839 | 26 | 166 | 9.7 | 14.5 | 0.00 | 2.41 | 2.41 | 73 | 994.5 |